Wind_Gust
20 20 20 20 20 20 21 21 21 21 20 21 21 21 20 20 20 21 20 21 22 21 22 23 24 24 26 27 29 27 27 34 30 27 24 17 12 15 16 16 19 19 19 22 22 21 22 22 23 22 26 25 29 32 31 36 36 34 45 45 46 42 44 38 44 40 30 37 35 30 29 29 29 29 36 30 37 31 32 30 13 12 21 28 27 25 26 27
20 20 20 20 21 21 21 21 21 21 21 20 21 21 21 21 20 21 21 21 21 23 22 23 23 23 25 27 28 27 32 29 31 27 24 15 16 15 15 16 19 20 21 23 19 19 20 21 23 23 28 32 22 32 26 43 36 43 42 47 49 44 43 34 40 39 39 35 25 32 29 32 27 25 30 35 32 34 31 30 24 17 22 26 26 26 24 25
20 20 21 20 20 20 21 21 21 20 20 21 21 21 22 22 21 20 21 22 22 22 23 23 24 24 24 26 27 25 30 33 27 30 20 11 13 12 12 14 17 22 26 22 20 21 22 20 21 26 30 31 31 33 32 45 41 42 43 47 50 38 38 37 37 39 40 35 32 31 31 36 35 34 31 38 28 32 35 36 31 28 21 28 27 26 25 25
20 20 21 20 20 20 21 21 21 21 21 22 22 21 22 22 21 21 21 22 22 22 22 24 24 24 26 26 26 34 30 29 28 21 17 13 11 8 11 15 17 23 22 22 21 24 21 22 24 26 30 33 31 34 40 39 50 41 50 52 47 38 42 39 39 37 38 37 34 31 28 31 34 37 32 33 39 35 28 30 31 27 26 29 30 29 26 24
21 21 21 21 21 21 21 22 22 21 22 22 22 22 22 22 22 21 22 21 22 22 23 24 23 24 24 25 28 31 28 29 18 17 20 13 10 7 10 14 19 23 21 22 24 22 22 23 25 26 31 37 33 31 40 38 46 41 46 44 43 37 41 38 38 37 36 33 35 33 34 39 28 34 33 31 39 38 31 25 29 31 28 31 32 28 26 25
21 21 22 22 23 23 23 23 23 23 23 23 23 22 22 22 21 21 21 21 21 22 22 23 23 24 26 24 35 27 23 20 17 17 11 11 7 9 11 14 17 25 23 23 23 21 21 23 26 31 34 33 32 43 35 41 36 50 45 44 45 46 44 32 36 38 37 41 37 38 38 33 33 30 35 31 37 33 35 25 23 23 24 30 23 25 23 24
22 22 22 23 23 24 24 24 23 23 23 23 22 22 21 21 21 21 21 21 21 21 22 22 22 23 23 26 34 27 26 39 24 20 15 9 11 11 15 16 18 22 22 23 21 23 21 24 28 29 31 33 34 44 38 33 39 44 54 41 44 42 47 40 37 32 37 40 43 43 35 41 36 41 30 34 31 33 31 29 29 24 34 29 30 23 22 23
22 22 22 22 23 23 23 23 24 23 23 23 23 22 23 22 22 22 22 22 22 21 22 22 21 22 20 27 27 20 19 28 22 18 16 14 16 19 20 19 19 19 20 21 20 21 21 27 30 30 36 35 29 40 31 38 37 47 55 42 42 42 44 41 42 41 37 37 40 42 44 40 40 41 32 33 29 30 33 30 32 18 28 24 26 24 22 21
22 23 23 24 24 24 24 25 25 25 25 24 24 23 24 24 23 23 23 22 23 22 22 21 21 19 18 23 25 23 19 19 16 18 20 18 16 18 17 22 17 18 20 20 20 22 22 26 30 30 31 34 32 32 35 35 47 45 45 42 37 41 40 42 41 43 44 42 34 40 44 45 43 41 41 35 32 27 30 34 29 13 22 21 19 18 23 21
24 23 24 25 24 25 25 26 26 26 25 25 24 23 23 24 23 23 23 23 22 22 22 21 19 17 22 24 21 22 14 10 11 11 10 17 17 19 19 20 19 19 22 21 22 22 24 25 25 25 30 33 29 36 29 39 38 33 39 41 44 42 41 37 43 43 43 45 38 42 38 45 42 46 44 31 30 28 28 30 23 19 22 25 22 21 18 22
24 24 25 25 25 25 26 26 26 26 26 25 25 24 24 24 25 25 25 23 23 22 21 20 16 17 22 19 23 24 14 18 11 16 19 17 20 20 20 19 17 21 20 22 24 22 22 25 24 25 30 38 27 33 37 38 32 38 37 36 43 42 41 41 42 41 46 53 45 44 42 38 41 43 47 33 27 26 26 21 18 23 23 22 19 19 18 19
25 25 25 25 25 26 26 26 25 26 25 25 25 24 25 25 25 26 24 23 24 22 21 16 16 22 22 23 26 32 15 22 21 22 21 19 21 22 20 20 19 20 21 23 22 21 21 22 23 29 31 21 42 25 37 33 36 33 38 44 36 42 59 42 49 44 40 47 43 43 45 46 44 47 45 39 26 27 28 25 21 18 24 21 25 21 21 21
25 26 25 26 27 26 26 26 26 26 27 26 26 26 26 27 27 25 25 24 21 21 20 19 15 21 22 28 32 29 29 25 23 21 20 21 23 23 23 21 22 22 22 23 23 21 21 22 23 27 31 33 25 43 15 26 33 33 35 42 39 39 44 47 44 41 45 44 36 44 59 48 50 48 41 34 32 23 27 34 32 23 23 23 20 25 23 21
25 25 26 26 27 27 27 27 27 27 28 28 27 26 26 26 27 27 25 25 24 23 19 16 22 23 23 36 31 26 23 23 23 24 23 22 22 23 22 21 22 22 20 22 22 23 24 21 20 25 26 30 32 21 32 31 26 44 34 36 42 40 45 38 53 43 46 41 37 38 51 48 47 43 39 35 31 31 31 29 30 26 25 25 24 23 23 21
25 26 26 26 26 27 27 27 27 29 28 29 28 28 26 27 28 28 26 24 23 18 14 10 20 19 24 34 27 23 20 23 24 23 21 22 22 22 20 21 23 20 21 20 23 21 22 22 20 26 33 26 28 29 31 33 31 35 40 45 39 43 38 38 42 45 55 45 42 40 49 49 42 44 38 36 37 31 36 33 31 28 27 27 26 25 25 24
25 26 27 26 26 28 27 28 27 28 28 29 30 29 30 31 30 28 24 22 23 18 18 19 21 25 25 34 15 11 19 22 23 17 16 17 16 17 16 18 17 19 18 20 21 21 22 20 27 24 26 25 31 30 27 32 34 38 41 32 44 42 38 38 41 42 50 53 39 46 51 45 40 37 34 36 37 38 37 34 34 30 26 28 28 25 26 27
26 26 27 27 27 28 28 28 29 29 28 30 30 33 31 29 27 25 19 20 20 19 20 20 22 30 25 18 17 21 22 26 14 13 14 16 16 17 18 18 21 22 23 22 22 21 22 27 20 28 27 32 30 33 33 34 34 39 38 43 37 43 42 46 31 45 44 50 44 49 59 44 30 35 39 33 39 39 38 36 33 34 33 30 28 27 26 28
26 26 27 27 28 28 28 28 28 30 29 30 30 32 43 32 29 18 16 20 22 25 25 27 19 21 39 34 29 16 18 15 15 18 17 17 17 20 20 24 18 21 22 26 25 28 26 31 27 30 27 32 33 37 43 41 42 39 39 41 44 41 43 39 47 37 43 48 51 44 51 46 39 33 36 39 32 37 38 37 35 35 34 33 30 28 26 28
26 27 27 27 27 28 28 29 29 28 29 31 33 38 39 33 29 22 26 26 23 21 19 24 28 24 19 15 15 19 21 18 14 14 21 23 23 25 24 23 22 21 24 24 26 28 29 28 28 30 35 35 39 37 42 38 36 40 36 39 37 40 42 47 41 35 40 43 51 49 51 47 44 40 34 33 37 38 37 34 33 33 33 31 31 28 27 27
26 27 27 27 27 28 28 28 29 29 27 28 33 37 33 19 19 20 20 18 25 23 25 25 26 28 30 29 29 27 26 22 24 23 24 24 25 23 25 24 22 24 26 29 25 34 26 33 35 34 34 34 35 39 38 40 38 37 39 35 37 38 37 35 36 37 38 43 45 47 47 43 41 43 38 35 30 38 38 37 35 34 34 33 31 30 30 29
27 27 27 27 27 28 27 27 28 27 26 30 28 30 27 27 21 29 30 31 32 32 33 32 33 33 39 30 27 26 29 25 26 26 25 18 22 20 27 24 26 29 29 27 31 25 33 35 34 31 33 33 34 37 38 38 39 40 36 40 41 40 40 38 38 38 43 41 38 43 44 46 42 40 41 38 35 36 36 37 34 33 31 29 30 30 31 29
27 27 27 27 28 27 28 28 28 27 27 27 22 25 22 21 18 23 28 39 22 25 28 30 28 33 30 30 25 24 23 32 27 27 27 20 22 28 20 27 27 31 25 29 29 32 34 39 34 33 32 33 34 34 37 39 38 39 44 41 44 46 39 36 41 36 42 44 39 39 45 42 43 41 37 43 40 39 37 35 33 33 32 29 29 30 30 28
27 27 27 27 28 28 28 30 27 28 26 19 18 18 23 21 19 19 20 34 41 30 30 31 30 30 29 24 23 16 23 27 29 24 31 26 23 28 23 28 27 29 31 28 32 29 36 35 33 32 33 33 34 36 34 38 40 39 42 46 46 40 44 43 42 39 40 49 38 36 39 39 38 39 39 41 48 40 33 33 32 31 32 30 29 29 31 29
26 26 27 27 28 27 29 26 29 25 21 17 18 18 20 20 20 18 21 23 32 29 28 27 24 24 22 21 20 24 21 25 24 23 22 25 26 20 30 27 26 30 33 30 30 33 33 26 33 37 35 35 36 34 35 38 39 39 40 42 44 42 47 43 38 43 37 40 39 36 38 38 37 39 44 39 43 43 40 35 36 36 31 29 25 27 29 31
27 27 27 27 28 30 26 28 20 14 17 15 14 19 18 17 15 15 24 34 32 31 17 17 14 17 15 14 13 22 20 25 23 22 21 20 24 23 26 27 30 32 28 28 30 35 34 32 28 33 35 35 37 38 40 36 39 39 39 40 38 37 42 44 39 39 44 47 47 38 47 48 36 41 44 38 43 44 44 42 39 37 35 33 30 28 28 28
27 27 27 28 29 27 30 23 12 21 17 14 17 18 16 15 15 15 19 19 24 21 21 22 19 20 18 18 17 21 17 30 20 25 22 21 20 26 24 31 30 30 27 29 34 38 32 30 33 32 33 37 39 40 35 36 39 38 47 41 41 40 40 41 43 43 45 50 45 43 45 40 36 41 41 39 39 42 39 44 40 37 37 37 34 32 30 33
27 27 28 29 26 24 22 15 21 20 14 16 18 15 18 17 13 14 23 19 21 24 17 24 18 19 19 15 22 15 22 14 16 17 23 23 23 20 29 26 28 29 29 27 34 39 30 32 33 33 34 39 41 44 42 40 41 45 31 41 40 42 42 42 42 44 41 37 38 42 47 40 37 40 39 39 39 40 40 42 43 41 36 35 32 31 30 34
28 28 30 29 26 18 18 24 19 14 14 16 18 17 16 16 17 14 15 21 19 14 18 20 14 18 19 13 18 26 22 20 25 24 20 18 19 23 29 26 30 27 26 28 36 22 29 35 33 35 34 39 45 38 34 40 49 39 36 39 43 41 40 42 42 41 42 36 42 42 41 50 42 32 38 41 42 42 42 42 42 39 38 36 33 32 32 34
29 31 31 28 26 26 21 18 15 17 17 18 15 16 13 14 15 17 16 18 21 27 23 15 16 17 16 18 24 23 25 22 25 18 18 18 21 23 30 28 31 30 28 28 34 31 32 30 32 35 36 39 31 38 39 38 45 35 34 38 39 40 40 39 39 42 40 42 38 39 45 48 41 36 38 41 42 44 45 42 40 39 39 38 37 32 34 34
30 31 30 26 24 19 17 15 18 18 18 15 15 15 15 14 16 12 15 18 20 24 20 16 15 17 16 18 21 18 23 22 22 21 19 25 21 25 32 24 25 27 32 29 36 34 33 26 29 38 42 34 32 40 40 39 37 29 35 37 41 43 43 36 36 42 41 46 39 35 40 44 41 40 39 44 50 42 37 37 38 39 38 38 35 36 36 36
32 30 26 20 19 19 16 15 9 11 14 15 14 14 16 15 13 20 20 17 28 25 19 15 20 15 18 17 26 19 23 24 24 26 28 22 26 25 25 30 29 29 27 29 35 34 35 34 35 38 31 33 30 38 41 38 37 36 46 42 38 38 43 40 36 35 45 42 39 40 40 42 50 34 42 34 34 38 37 39 39 39 40 39 35 37 36 35
29 28 24 21 18 19 16 15 17 14 15 15 11 16 16 18 19 16 21 18 31 15 16 18 20 20 18 20 24 29 30 24 26 32 31 30 26 29 32 29 28 31 31 31 35 31 37 39 32 30 32 34 38 34 38 43 41 43 39 42 41 40 46 53 45 42 39 41 36 39 41 47 50 32 31 39 32 37 37 38 40 40 40 38 38 37 36 37
28 25 25 20 13 12 12 15 13 13 11 10 15 13 16 15 17 14 26 18 18 16 16 13 19 21 18 20 29 28 25 30 22 28 26 31 30 28 29 35 27 33 30 27 30 30 32 31 34 33 30 37 35 41 38 45 44 44 46 43 42 45 43 40 45 40 35 41 33 39 39 50 31 43 35 33 34 33 35 33 35 39 39 39 40 39 39 38
27 23 21 11 18 14 11 10 11 13 10 11 13 15 15 15 19 15 26 24 21 21 22 19 21 22 20 27 23 21 26 22 24 28 25 27 28 28 30 32 32 33 36 28 27 30 29 37 40 36 41 35 42 37 32 32 42 46 40 43 36 38 49 41 49 49 45 37 38 35 48 47 39 29 39 34 33 35 35 35 33 36 38 36 38 40 40 38
30 23 17 15 14 12 8 11 10 9 11 12 14 12 15 19 21 26 31 25 28 25 23 21 26 19 26 29 25 28 27 22 19 20 23 25 27 30 31 33 31 32 30 31 27 33 34 37 29 38 27 35 39 34 32 34 37 44 45 39 40 41 30 40 37 42 41 38 41 45 44 31 39 20 28 38 34 32 34 35 33 36 37 37 37 40 40 38
23 19 18 15 11 10 8 9 9 9 13 14 14 17 18 17 25 17 21 23 23 21 28 27 23 22 27 26 19 19 18 28 15 22 22 26 26 29 27 31 39 34 32 35 20 25 32 39 28 35 34 33 38 36 37 37 45 44 44 50 38 28 32 29 29 37 22 30 36 31 38 40 32 28 19 32 38 33 34 34 35 36 38 37 37 37 37 37
19 15 21 13 9 11 10 9 10 11 14 13 14 19 21 28 16 24 22 23 20 22 12 22 20 10 12 13 18 9 14 21 24 22 22 18 25 28 28 28 26 32 35 29 29 34 26 26 28 35 37 35 35 36 33 35 34 43 49 38 34 35 31 34 32 37 39 38 33 35 37 37 39 40 27 26 36 32 33 33 34 33 36 37 36 34 35 34
21 17 15 11 14 10 8 9 11 12 12 12 19 17 23 27 24 26 20 24 19 10 16 15 15 4 13 17 16 12 13 19 12 25 19 18 19 21 27 29 23 25 27 31 25 26 29 29 33 32 33 33 32 34 36 34 36 35 38 34 49 42 38 34 30 34 37 35 33 37 35 38 38 32 35 30 33 34 31 31 32 34 37 36 35 35 33 34
21 21 14 13 10 10 10 9 11 13 12 16 18 25 15 27 28 24 18 21 18 10 13 13 14 9 11 18 20 19 20 22 19 20 20 27 24 17 24 21 22 21 20 22 33 32 31 24 30 32 36 33 35 38 38 34 35 36 34 42 36 30 30 31 32 22 35 30 31 36 39 41 36 32 29 32 31 32 32 33 33 33 34 34 34 35 35 35
23 25 13 13 15 13 13 10 13 13 14 16 19 25 27 34 31 25 24 10 14 8 11 10 6 15 13 17 20 23 18 24 24 23 22 18 23 18 21 18 13 22 20 23 28 26 27 18 23 35 34 34 41 43 35 32 38 40 40 39 41 37 22 27 28 33 34 34 33 29 37 36 33 29 27 30 30 30 32 33 32 33 33 34 33 32 31 33
18 23 15 14 15 14 12 11 13 16 16 21 21 25 28 33 33 28 28 12 13 14 17 12 10 12 11 18 16 15 20 23 26 25 16 12 17 15 17 17 19 19 26 28 27 27 23 20 22 34 40 36 31 31 28 31 32 34 35 37 35 35 32 32 27 30 36 39 34 31 29 28 26 28 30 26 26 30 31 31 32 31 33 32 31 29 29 31
21 23 17 15 16 12 15 15 20 20 19 21 25 36 32 26 29 28 30 16 12 16 10 11 12 12 17 19 22 23 24 25 22 21 16 13 17 20 14 15 16 19 28 24 26 21 25 17 22 32 35 32 27 28 29 30 33 32 34 37 39 34 31 32 27 27 30 35 28 29 25 22 19 25 28 27 24 27 29 29 30 30 30 30 29 29 29 30
21 16 19 18 14 15 17 23 21 15 19 28 27 25 27 29 24 31 31 26 11 9 10 10 8 8 13 15 14 20 21 25 24 16 16 14 12 10 13 18 19 21 24 28 23 25 15 25 30 31 26 27 26 27 28 28 30 33 35 35 38 39 33 29 27 25 29 27 33 29 28 20 18 16 24 25 22 24 27 28 28 29 28 31 30 29 29 31
25 18 17 16 16 15 18 20 23 22 28 25 27 32 22 29 26 33 32 27 16 8 8 10 7 13 16 16 21 21 21 19 15 17 12 15 13 12 15 21 21 22 20 12 12 20 17 17 24 28 31 33 28 30 32 29 33 32 31 35 34 36 33 30 29 25 24 24 26 25 30 21 15 12 19 23 25 25 25 26 25 28 28 30 31 33 32 29
31 31 19 23 18 16 16 19 20 22 27 30 34 31 32 27 20 26 28 26 19 11 6 11 10 7 13 17 23 22 23 22 26 17 13 16 14 13 17 20 20 20 21 19 17 19 15 18 17 25 27 29 30 33 34 31 32 29 30 34 36 36 34 33 27 21 22 21 26 24 21 21 20 18 21 25 24 25 24 27 25 26 27 32 31 31 33 32
19 23 24 12 18 23 27 23 20 22 27 27 26 28 28 35 31 23 24 23 19 9 11 8 11 10 11 15 18 18 19 17 22 15 18 15 12 17 16 18 18 21 12 10 13 14 12 17 18 18 19 24 26 26 24 24 28 35 31 31 35 36 34 29 24 22 23 21 24 19 15 21 22 24 23 23 23 21 25 24 27 24 26 29 29 32 31 30
27 19 23 23 29 16 21 24 22 25 25 26 30 31 30 32 35 28 22 30 24 22 14 14 13 13 11 11 16 20 16 17 18 20 16 17 12 16 19 20 20 20 10 12 15 19 18 18 17 15 15 19 22 27 28 31 28 29 30 31 31 32 30 31 30 27 21 20 24 23 16 18 22 23 24 23 20 19 14 20 22 25 21 26 30 29 28 33
20 16 18 17 20 24 25 17 24 24 27 28 27 28 28 32 30 37 31 20 26 22 25 14 14 15 16 13 17 16 17 15 14 14 17 16 16 20 23 20 21 16 13 18 16 18 16 13 14 16 16 18 16 19 33 33 28 28 30 29 31 31 29 30 30 26 19 20 20 22 18 17 20 21 20 20 16 18 16 13 16 22 24 27 29 28 31 33
18 22 16 22 19 19 24 26 28 27 28 21 25 23 29 28 31 29 32 34 29 25 22 26 16 20 18 15 15 16 18 17 10 15 16 17 19 19 20 19 18 19 20 19 18 15 17 16 16 17 23 24 19 20 28 32 30 30 29 30 31 31 29 29 27 25 22 20 18 17 20 16 17 24 22 22 18 15 17 14 13 22 23 23 26 27 27 29
22 21 23 24 22 29 23 23 27 25 24 23 24 24 35 31 31 32 31 30 36 28 26 14 28 27 19 13 17 17 15 15 17 18 13 14 18 18 16 14 14 18 20 19 14 11 17 18 20 21 24 27 23 19 20 30 27 32 29 28 29 30 28 27 25 23 22 20 19 21 19 26 23 16 21 18 15 16 12 12 13 12 24 26 28 29 28 31
19 16 16 25 30 22 26 24 25 26 24 23 27 28 29 31 31 32 32 26 22 30 30 27 32 25 16 12 15 16 18 21 20 18 18 17 18 14 17 16 14 14 16 18 14 12 13 18 17 15 16 14 17 16 18 15 23 26 27 28 29 28 28 29 35 27 25 27 23 23 27 28 24 22 19 14 12 13 13 12 12 12 18 25 33 31 33 30
20 17 17 21 29 21 29 24 25 24 22 25 31 30 36 32 30 32 37 17 19 25 28 27 27 26 17 13 17 20 22 20 21 19 18 20 21 23 19 21 18 16 17 18 13 18 14 18 19 18 19 14 21 24 25 19 17 23 25 28 28 27 26 27 29 27 29 25 28 25 26 19 16 18 14 16 16 9 12 14 11 10 12 21 25 31 32 30
Wind_Speed
16 16 16 16 15 16 16 16 16 16 16 16 16 16 16 16 16 16 16 17 17 17 18 18 19 20 21 22 23 22 22 18 18 15 13 2 4 7 6 6 8 10 13 10 13 11 11 11 13 12 11 10 10 13 12 15 12 12 14 15 19 17 20 16 19 16 14 16 17 18 19 19 19 18 17 13 20 15 19 20 3 7 14 17 15 16 17 17
16 16 16 16 16 16 16 17 17 16 17 16 17 17 17 17 16 16 17 17 17 18 17 18 18 18 20 21 23 22 21 17 19 17 12 8 6 5 8 10 11 11 12 10 10 10 11 10 11 12 12 12 10 13 13 11 14 15 14 17 20 18 17 18 18 20 18 18 14 20 19 18 15 16 12 16 18 22 21 11 14 8 15 17 16 17 16 16
16 16 16 16 16 16 16 16 16 16 16 17 17 17 17 17 17 16 17 17 17 18 19 18 19 19 19 21 22 20 18 18 15 18 6 3 8 7 8 8 10 11 9 10 11 12 12 12 11 12 12 13 12 14 16 14 15 19 16 19 20 17 20 22 22 19 20 21 21 13 20 21 18 15 10 15 18 22 19 12 17 18 13 18 18 17 17 15
16 16 17 16 16 16 17 16 17 16 16 17 17 17 17 17 17 17 17 17 17 17 18 19 19 19 21 21 21 19 17 16 12 7 7 8 6 6 5 5 7 11 10 11 12 13 12 13 14 14 12 15 13 17 16 15 15 15 20 20 18 17 21 22 23 21 23 24 21 16 10 19 20 18 15 17 17 16 13 18 20 19 14 18 19 19 17 15
17 17 17 17 17 17 17 18 17 17 17 18 18 17 18 18 17 17 17 17 18 18 18 19 19 19 20 21 21 16 15 12 4 5 10 8 7 4 1 5 8 10 10 12 13 13 13 13 12 13 13 12 16 15 18 19 18 14 23 25 23 19 23 21 21 24 22 22 19 17 20 17 15 19 21 20 17 13 14 16 18 17 14 20 21 19 16 16
17 16 17 18 18 19 18 19 18 19 18 18 18 17 17 17 17 17 17 17 16 17 17 18 19 19 21 20 19 14 8 3 5 6 7 7 5 4 3 7 10 11 12 13 12 12 12 12 13 12 12 14 15 18 17 21 19 18 20 25 25 25 25 16 21 23 24 21 22 21 20 17 17 17 21 20 18 16 22 16 15 12 5 18 14 15 15 14
18 17 18 18 18 18 19 19 18 18 18 18 18 18 17 17 17 16 17 16 17 17 18 18 18 18 19 21 17 14 11 13 13 9 9 7 9 9 11 11 12 11 12 12 12 11 11 13 13 14 14 15 18 18 20 19 22 21 19 22 27 28 29 24 20 20 22 24 23 21 20 23 19 21 16 20 18 17 19 16 9 16 22 19 19 16 14 15
17 18 18 18 18 18 18 18 19 19 18 18 18 18 18 17 17 17 17 18 17 17 17 18 17 18 17 14 12 6 7 10 11 11 12 11 10 12 12 9 10 10 11 11 11 12 11 13 14 13 15 15 12 19 16 21 22 23 23 24 25 28 26 24 25 25 22 23 23 23 24 23 24 20 17 20 20 18 15 15 19 7 16 15 16 16 13 12
18 18 19 19 19 19 19 20 20 20 20 19 19 18 19 19 19 18 18 18 18 18 17 17 17 15 15 11 11 10 7 9 9 11 12 9 5 5 7 10 9 10 10 11 11 13 12 11 14 14 12 17 18 19 20 18 17 23 25 25 22 25 27 24 25 28 28 19 19 25 27 27 26 21 22 21 22 13 15 21 20 6 10 13 12 12 16 13
18 19 19 20 19 20 20 20 21 20 20 20 20 19 19 19 19 19 19 18 17 18 17 17 15 14 13 9 10 9 2 2 2 3 2 4 8 9 9 11 11 11 11 11 12 13 14 11 13 12 17 19 16 19 17 22 16 18 24 25 27 28 26 22 25 26 25 24 25 24 24 28 24 19 15 19 19 15 17 18 12 12 15 17 13 12 12 12
20 19 20 20 20 20 21 21 20 21 21 20 20 19 19 19 20 20 20 18 18 17 17 16 13 12 10 8 8 10 3 7 4 1 5 8 11 11 11 11 10 10 11 12 13 13 14 14 13 11 11 12 14 19 19 17 18 22 22 24 27 26 25 22 24 26 23 22 28 28 27 24 24 23 22 18 14 14 13 2 9 13 15 11 11 11 10 10
20 20 20 20 20 21 21 21 20 21 20 20 20 20 20 20 20 21 19 18 18 17 17 13 13 7 10 11 11 13 6 13 11 11 11 10 10 12 13 12 11 11 12 13 13 12 13 13 12 13 11 5 15 14 18 19 21 20 23 24 24 24 24 27 25 24 24 21 25 27 27 28 23 23 25 22 11 9 15 10 8 6 9 9 8 9 10 10
20 21 20 21 21 21 21 21 20 21 21 21 21 21 21 21 22 20 20 19 16 17 16 15 10 7 9 12 15 16 17 13 12 13 11 9 10 12 13 13 13 13 13 14 13 13 13 12 13 16 16 16 12 10 5 15 19 20 21 19 22 20 22 28 24 23 27 19 22 23 21 22 27 28 24 17 10 8 10 14 16 5 12 8 10 10 11 12
20 20 21 21 21 21 21 21 22 22 22 22 22 21 21 21 21 21 20 19 20 18 15 12 8 8 8 12 9 11 15 12 14 14 14 11 12 12 14 13 13 12 11 13 14 12 15 11 12 14 12 16 12 12 16 14 14 18 18 17 15 17 18 20 23 26 27 20 23 22 19 18 25 27 21 20 7 7 12 15 18 11 11 11 8 12 11 12
20 21 20 20 21 21 21 21 21 23 22 23 23 22 21 22 23 23 21 18 18 15 11 8 8 7 9 11 15 14 16 14 15 14 10 12 12 12 12 12 14 12 11 12 10 10 11 14 12 12 12 12 15 15 13 12 12 13 14 18 15 18 16 22 21 29 29 21 26 25 18 20 25 27 20 19 16 11 18 15 16 14 9 11 9 12 13 12
19 20 21 21 21 23 22 22 22 22 22 23 24 24 24 25 24 22 19 17 19 15 8 9 9 10 9 13 3 3 6 10 13 9 8 9 8 9 7 9 9 7 8 10 8 7 10 11 12 10 11 13 15 12 11 10 12 14 16 15 19 16 16 17 23 20 30 24 24 27 18 20 22 23 20 15 16 19 19 18 15 11 8 8 11 10 13 13
20 21 21 21 22 22 22 22 23 23 23 24 25 27 25 23 22 20 15 16 10 8 7 6 10 12 6 2 1 10 7 11 6 3 4 4 8 8 7 8 9 11 12 13 12 9 11 13 8 11 13 12 11 13 12 14 12 13 14 15 16 20 18 19 15 24 22 21 19 25 22 24 15 18 20 13 21 22 22 19 13 13 12 11 11 12 13 13
20 21 21 21 22 21 22 22 22 24 23 25 24 26 25 26 24 15 10 11 6 6 8 11 8 6 14 16 14 6 6 7 6 6 7 8 5 8 10 10 10 12 12 13 14 14 11 11 10 11 10 13 13 14 16 16 15 14 15 16 18 21 24 20 17 15 22 25 28 26 27 26 22 18 18 17 16 22 23 20 19 17 17 14 12 14 13 13
21 22 21 21 21 23 22 23 23 23 23 25 27 28 27 26 13 8 9 7 5 5 6 7 11 8 4 2 6 10 7 8 7 4 6 8 9 10 12 12 13 12 11 10 9 15 10 11 10 12 14 14 16 17 17 18 19 21 19 17 17 19 19 18 20 18 19 24 25 31 22 24 25 25 18 19 18 14 19 20 17 17 15 15 14 13 12 13
21 21 21 22 22 21 22 23 23 23 22 19 16 14 12 2 2 4 8 8 11 12 14 13 10 13 15 15 15 15 9 12 11 10 11 12 11 13 15 12 12 12 11 11 11 15 10 13 13 14 14 16 19 21 21 22 22 21 20 19 18 19 18 20 23 16 21 22 26 26 24 23 25 27 20 16 13 19 20 18 17 17 16 15 14 13 14 15
21 20 21 21 21 22 22 22 22 22 21 16 14 12 10 12 10 10 14 16 19 20 20 20 20 20 19 16 15 13 13 12 14 14 11 7 13 10 10 10 11 11 12 15 14 10 15 14 15 17 18 19 19 20 22 22 22 23 19 20 18 20 17 20 19 20 22 18 17 23 26 28 24 22 24 21 18 17 22 24 20 20 16 13 16 15 15 10
21 20 20 21 22 22 23 22 23 22 22 11 10 9 9 11 8 11 11 14 13 15 17 19 17 19 16 17 15 13 13 14 16 15 12 10 11 11 9 12 13 14 12 14 13 13 13 16 15 18 18 19 20 20 21 23 23 21 19 17 18 19 18 20 22 20 20 21 17 24 26 23 27 24 20 24 22 17 16 20 19 19 17 13 13 12 15 11
20 21 20 21 21 22 23 24 22 23 11 6 7 9 10 12 10 9 9 13 19 16 17 19 18 18 16 12 11 9 13 14 13 12 13 13 13 14 12 11 13 14 14 15 14 13 14 14 19 18 18 20 20 22 21 22 21 17 17 18 17 16 18 16 20 24 22 17 17 20 22 19 22 22 23 22 23 19 17 11 14 15 17 16 16 12 14 14
19 20 21 20 22 22 24 21 24 15 8 8 10 6 9 10 10 10 10 8 13 16 14 14 14 13 12 9 3 14 11 9 11 12 13 10 12 10 13 15 15 14 14 16 18 15 15 14 17 20 21 21 21 21 22 17 16 19 21 18 17 19 21 21 15 21 22 22 23 22 18 15 18 19 20 20 23 21 15 10 12 14 14 15 12 12 16 16
20 20 20 21 22 25 21 23 10 5 9 7 6 9 9 8 8 8 10 11 10 11 9 9 6 6 3 4 2 6 8 10 13 12 10 8 12 11 12 11 11 14 16 16 18 17 19 20 16 19 21 21 21 19 21 18 16 16 22 21 19 22 23 21 24 18 15 18 24 23 15 17 16 21 23 18 17 20 18 19 19 19 19 17 14 13 17 16
20 20 21 22 23 21 24 10 4 9 9 5 7 9 8 7 7 7 7 4 7 3 7 7 6 3 2 8 5 7 7 11 10 11 11 8 9 12 8 11 9 14 16 17 16 12 14 17 20 19 19 20 21 19 20 21 16 16 15 22 24 23 23 23 23 21 17 18 19 23 21 12 16 18 21 19 20 22 17 24 25 20 19 19 15 13 14 18
20 21 22 22 20 19 10 4 10 11 5 6 9 8 9 8 7 9 5 4 7 6 5 8 5 1 4 3 6 4 7 2 5 8 11 10 12 9 14 11 11 11 11 9 8 12 13 18 19 20 19 17 17 17 19 21 18 15 15 20 22 26 26 24 26 22 15 15 19 25 19 12 12 17 19 21 21 22 23 22 24 24 20 19 17 14 13 20
21 21 23 20 19 13 7 9 9 6 6 8 9 9 7 7 8 5 3 5 3 3 3 5 3 4 5 4 7 9 9 11 9 6 10 8 10 11 12 14 15 15 12 11 14 9 14 17 19 18 18 16 15 17 18 22 18 14 17 20 21 26 25 26 22 15 17 17 18 19 25 16 14 11 21 24 25 23 25 26 28 25 23 19 17 16 15 21
21 23 21 20 20 20 9 7 7 7 8 9 8 8 5 7 7 4 3 5 4 6 2 2 1 5 3 4 9 10 11 9 11 6 8 9 11 9 11 15 16 17 17 14 12 13 11 15 16 18 15 14 15 16 19 21 18 17 20 18 18 19 24 24 17 16 14 16 15 19 19 14 13 16 14 23 24 25 24 25 24 23 23 21 18 16 16 18
22 21 21 19 15 8 6 6 7 9 9 7 8 8 9 6 5 4 3 4 6 7 8 3 5 7 8 8 9 9 12 9 9 6 8 10 9 13 14 15 13 13 15 16 17 14 17 16 15 12 14 15 15 16 17 20 21 16 20 19 17 18 18 18 16 12 12 16 13 22 22 17 14 16 17 12 19 21 20 17 18 21 23 22 19 17 18 19
23 21 19 15 7 6 6 4 2 4 7 8 7 7 7 5 2 5 6 5 10 7 6 3 8 9 7 6 7 8 11 11 11 12 11 8 14 13 11 11 12 12 11 12 13 16 18 18 15 11 15 13 15 17 16 18 19 21 15 15 13 14 17 17 13 12 12 11 16 23 22 22 16 13 18 15 17 24 20 19 23 24 24 22 18 18 18 20
23 21 17 9 7 6 4 5 9 6 7 8 6 6 5 5 4 2 5 9 10 6 6 6 9 5 5 5 6 6 6 7 12 13 13 10 10 8 11 9 7 11 12 12 13 14 16 17 14 17 13 18 15 16 14 17 18 18 17 16 15 8 9 9 11 11 9 8 11 20 22 19 22 13 14 21 20 21 21 18 20 23 24 21 21 20 18 18
22 18 19 11 8 5 4 5 6 6 6 5 6 4 3 3 5 4 6 7 1 7 4 3 8 12 11 12 14 15 14 15 11 14 15 14 12 14 16 11 14 11 11 10 13 12 12 15 16 17 16 14 17 15 13 14 17 18 19 17 15 12 12 10 13 7 8 12 18 21 23 17 12 18 19 19 20 20 22 17 20 22 21 20 20 20 18 20
22 18 8 5 7 6 3 3 3 6 5 5 5 5 3 4 5 5 11 7 7 11 13 7 12 14 13 9 12 11 10 10 13 10 12 11 10 9 8 17 20 13 14 13 10 9 10 11 13 15 12 13 17 17 14 12 13 16 18 18 13 12 10 8 12 11 10 10 17 22 18 12 18 8 23 21 16 17 19 19 18 20 19 17 19 22 22 21
24 15 8 7 5 4 2 3 4 3 5 3 4 2 4 5 6 8 9 7 9 12 13 13 12 11 13 11 14 14 10 6 7 9 10 10 10 10 11 11 15 15 11 11 11 7 13 11 10 16 16 15 18 16 16 15 13 15 17 14 14 14 8 12 8 13 12 12 12 15 10 10 14 10 15 21 20 19 20 21 19 20 20 19 19 20 19 19
16 7 8 5 4 4 2 1 2 3 4 4 3 4 6 4 5 5 5 7 8 7 15 16 11 8 7 10 8 10 6 8 5 6 7 11 13 12 13 8 9 14 12 13 5 8 9 12 12 13 19 19 18 15 16 14 11 11 15 16 16 14 13 5 5 13 10 9 9 4 8 12 11 15 11 18 21 21 20 22 21 20 21 20 18 19 20 17
8 3 9 6 3 4 4 1 1 3 3 4 3 5 6 8 4 10 6 10 6 9 4 7 3 2 4 4 7 3 2 6 11 8 6 9 9 13 12 11 10 9 14 12 10 7 9 8 10 13 18 20 17 17 19 18 15 8 14 15 17 18 14 8 9 8 11 12 7 11 15 15 15 10 10 13 21 21 18 21 22 17 18 19 17 17 18 17
9 7 4 4 5 2 2 1 3 3 4 3 5 10 9 10 10 13 4 6 6 1 4 3 2 2 4 7 6 4 5 6 2 3 8 3 5 4 7 8 10 13 16 19 10 2 2 8 12 17 18 18 18 18 19 20 20 16 12 16 17 12 15 12 5 8 12 11 7 14 16 15 16 12 14 17 19 18 16 19 19 18 18 19 17 18 18 18
10 9 5 6 3 2 4 3 3 4 4 4 5 8 5 10 14 8 2 2 3 1 3 1 3 2 3 8 10 11 11 7 9 7 7 1 5 1 9 5 8 12 9 9 9 5 3 1 9 14 17 17 16 15 15 16 18 21 17 14 16 12 12 12 8 7 12 11 10 13 20 12 13 11 12 15 14 14 15 17 16 16 17 16 15 15 16 15
8 7 2 6 7 5 6 2 3 4 2 4 5 6 10 13 14 13 13 4 1 2 2 4 3 6 5 8 11 10 8 11 8 8 7 5 7 9 8 8 1 6 8 10 6 6 3 6 7 8 17 15 13 12 14 14 14 13 13 11 11 11 8 10 10 12 8 7 8 8 11 11 11 11 14 19 18 15 13 15 13 13 15 16 17 15 14 16
7 7 2 6 7 5 4 3 3 4 5 6 10 10 14 12 12 13 16 3 6 3 3 4 4 3 4 7 8 7 6 7 9 9 7 4 5 1 3 5 11 7 9 10 10 6 4 5 8 10 10 12 12 14 16 16 13 11 11 12 13 16 14 13 10 10 10 9 7 8 8 10 10 11 10 11 11 13 11 16 13 12 16 15 13 13 15 15
5 7 3 7 7 6 3 5 5 5 4 6 10 12 9 12 11 12 12 8 4 2 3 3 6 5 7 8 10 10 9 9 7 6 7 3 5 2 5 4 5 3 5 4 6 6 6 4 6 7 9 12 15 17 17 15 14 13 12 14 16 15 11 10 9 8 9 11 13 12 7 8 7 9 9 10 9 11 11 16 12 9 13 17 15 15 14 15
7 4 6 8 7 5 5 7 7 3 6 10 14 14 13 12 11 11 14 10 2 1 1 2 3 2 5 4 6 9 10 7 11 6 7 6 3 2 6 8 9 9 2 3 9 6 10 0 5 9 12 11 13 14 17 16 14 13 15 16 15 15 14 10 7 8 10 11 11 10 8 3 4 2 6 9 9 8 7 10 13 12 9 14 16 18 15 18
10 5 4 7 6 7 6 6 9 8 9 13 13 14 12 13 12 12 11 15 1 1 2 1 4 4 8 8 10 10 8 5 6 9 2 2 1 3 5 10 11 7 7 3 3 4 3 1 4 6 7 8 9 10 13 13 11 10 11 13 16 17 17 11 12 12 8 11 14 9 9 3 3 5 5 14 14 15 13 14 12 13 11 14 16 16 15 17
10 10 4 7 7 7 6 6 6 7 12 15 15 17 15 10 8 11 14 14 6 4 2 3 4 3 5 9 11 11 11 9 6 9 5 8 3 2 10 9 12 7 12 10 10 5 1 4 1 4 6 7 8 10 11 10 13 10 13 15 19 23 21 14 11 6 4 5 14 5 5 7 2 2 12 10 10 11 13 14 13 10 11 13 14 13 17 17
4 7 6 1 5 9 10 10 8 7 11 13 12 12 14 14 12 11 14 12 12 3 3 0 2 3 5 7 9 9 9 8 11 5 8 3 1 4 6 9 10 7 4 7 4 2 2 3 4 7 6 6 8 8 11 10 9 12 15 18 20 23 21 14 5 3 5 6 8 7 3 4 7 9 11 12 8 10 10 12 11 10 10 9 12 14 16 16
7 5 6 7 11 5 9 9 9 8 7 12 8 11 15 16 15 12 13 10 12 7 4 3 3 2 4 5 7 11 8 8 9 10 7 9 4 0 9 7 8 9 6 2 6 2 3 4 9 5 8 10 11 8 12 17 15 16 17 16 18 19 17 12 5 5 8 8 7 4 4 3 6 12 5 7 10 4 6 7 10 9 10 9 13 14 16 17
5 5 6 5 7 8 10 6 11 12 16 17 10 12 15 17 16 14 12 10 15 11 9 5 3 4 9 7 8 6 9 8 7 6 9 8 8 5 5 8 8 8 4 6 4 5 5 2 8 6 7 7 5 8 9 14 14 14 15 14 15 17 18 15 9 11 8 7 3 4 3 5 7 7 6 6 6 6 4 2 9 9 8 15 14 14 17 19
5 6 4 11 6 9 11 15 17 16 17 8 8 12 15 17 18 15 14 16 13 12 10 9 7 6 9 8 5 7 9 8 4 7 7 8 11 6 2 6 6 6 10 7 5 4 4 5 8 7 10 9 11 11 12 13 14 14 16 17 16 18 19 15 12 13 12 9 7 3 4 4 9 11 8 7 7 8 6 8 4 12 13 8 11 12 7 9
7 7 8 10 9 13 12 12 13 14 11 11 8 12 15 17 20 19 15 14 13 14 16 7 11 5 11 5 6 7 9 9 9 9 7 8 9 7 4 2 1 6 7 8 5 4 2 5 2 6 7 13 15 13 13 19 15 14 16 17 18 16 15 14 9 8 8 8 4 3 8 4 7 2 8 9 5 5 3 5 2 8 14 10 7 7 15 7
6 6 5 9 12 8 12 12 11 11 8 10 10 14 14 18 17 19 17 14 12 15 16 16 14 3 7 5 5 9 11 13 13 11 11 10 8 6 7 1 2 4 5 5 5 4 2 2 4 1 4 5 7 7 5 8 15 17 15 15 17 17 16 12 9 6 7 7 6 6 5 3 3 1 7 5 6 6 2 5 6 3 9 16 16 7 9 15
6 7 7 7 10 11 12 11 12 10 7 10 13 16 13 18 17 19 14 6 11 15 14 15 9 5 1 2 5 11 14 13 13 11 9 10 11 12 10 10 9 7 4 7 4 5 3 1 3 5 5 4 12 14 16 12 8 10 13 14 14 13 12 10 12 9 8 7 4 4 8 5 4 2 5 4 4 1 7 5 4 4 7 12 16 21 19 16
Wind_Direction
358 356 354 352 351 351 349 348 348 346 343 342 343 343 342 342 341 338 339 338 334 336 336 332 334 333 327 330 323 327 325 313 312 303 287 3 92 89 60 23 6 356 340 315 286 274 272 257 244 237 242 232 222 230 226 231 231 234 225 227 236 232 233 229 231 234 245 242 193 209 252 251 223 214 224 218 252 256 233 233 184 199 86 103 114 127 130 134
357 355 352 351 350 349 347 347 345 343 338 339 342 343 339 338 340 339 336 336 335 333 335 335 329 330 328 324 324 324 322 313 299 294 285 128 89 73 40 23 357 352 334 294 289 283 273 259 249 232 228 233 216 230 210 223 219 223 231 232 232 228 235 234 236 234 240 247 249 193 201 265 264 208 221 218 214 241 245 297 278 212 124 120 128 127 134 138
354 351 350 347 346 345 344 343 342 340 335 339 339 337 337 335 336 338 336 334 334 333 332 331 331 328 329 323 318 318 316 303 295 279 116 105 93 56 46 19 352 323 303 294 293 290 286 286 272 239 226 239 218 227 210 217 216 219 232 233 233 226 237 234 237 238 237 246 245 237 193 200 250 269 206 220 209 210 229 217 239 248 147 138 133 140 141 148
351 350 347 345 343 343 342 339 338 339 337 336 334 334 334 335 334 334 332 333 332 332 332 329 328 329 324 322 320 320 305 304 290 79 117 108 87 71 50 346 331 307 292 282 285 284 284 273 270 265 244 229 229 227 220 209 218 210 227 234 233 223 237 231 235 237 243 245 249 252 238 192 194 228 249 224 233 249 250 212 236 230 180 151 148 147 148 151
348 347 344 343 341 340 339 339 338 338 337 334 333 332 334 332 332 332 330 330 331 331 330 329 329 323 323 319 315 311 312 284 89 102 111 129 121 54 38 322 294 296 296 295 289 273 261 263 257 253 250 239 226 226 226 220 216 225 229 234 236 236 241 231 235 239 244 253 257 245 242 245 204 214 232 233 230 237 244 242 210 220 220 161 153 144 144 151
346 346 342 341 341 341 340 340 339 338 335 333 331 330 330 330 327 326 326 324 325 325 328 328 325 323 321 321 308 293 292 305 91 137 141 127 147 150 270 259 271 279 284 284 281 281 270 241 242 242 236 239 228 221 222 225 215 231 230 234 232 229 242 233 226 234 236 242 242 240 240 248 231 218 219 231 226 239 254 226 228 188 142 125 126 139 144 156
344 345 343 341 340 340 338 336 335 332 332 330 330 327 327 327 325 322 323 327 320 324 325 327 321 321 322 312 297 271 248 260 295 131 147 201 166 198 217 235 243 257 265 271 270 264 247 250 235 236 239 238 236 236 228 227 222 233 232 230 232 232 232 236 242 233 229 235 240 243 246 239 238 227 208 210 207 225 257 257 228 115 112 143 151 145 152 161
344 342 340 339 338 336 336 333 331 330 328 328 327 329 327 327 326 320 321 320 322 318 323 325 324 317 326 322 325 309 274 279 96 152 163 189 196 207 218 241 274 270 266 263 265 261 265 247 237 233 241 238 226 234 235 234 231 226 236 232 235 234 233 226 235 244 246 230 227 242 247 246 238 239 230 221 202 187 225 241 247 132 144 152 151 145 144 161
342 340 341 339 337 336 335 333 331 331 330 327 326 328 326 324 321 318 314 315 315 317 317 320 320 318 310 290 292 294 278 90 133 146 183 183 236 313 307 291 282 269 260 257 256 263 267 255 245 238 242 235 245 247 232 237 231 233 231 234 237 236 233 222 228 232 238 250 241 220 231 246 252 242 251 245 237 208 208 215 218 148 153 130 125 140 150 162
342 341 340 339 337 337 335 332 329 329 327 325 323 323 323 320 318 313 311 309 309 313 313 316 311 313 303 292 284 270 282 332 152 260 46 283 298 293 282 279 274 270 264 254 253 254 250 257 262 248 249 260 252 240 247 233 241 232 238 236 235 237 237 230 227 230 228 235 246 251 232 222 228 244 246 247 240 241 210 220 184 200 167 135 141 143 155 158
341 340 339 339 338 336 334 331 328 326 327 324 322 320 317 315 312 309 305 303 304 309 309 307 313 302 293 292 278 264 66 275 294 267 270 283 294 285 279 278 280 277 269 268 268 260 257 254 257 269 260 248 246 252 245 245 245 245 246 241 238 238 239 235 234 230 226 228 231 240 252 256 228 220 239 241 207 231 273 255 191 221 200 120 124 147 143 151
340 338 338 339 337 335 333 331 327 326 325 324 320 316 312 307 307 302 299 299 301 300 300 306 296 287 275 271 249 238 305 305 310 295 290 298 287 284 280 268 263 263 265 267 261 254 255 268 272 256 254 242 242 259 252 250 246 246 240 248 243 232 234 235 231 231 226 225 221 228 243 243 246 230 230 242 200 175 243 253 283 270 126 132 144 146 143 141
338 338 337 336 334 333 331 330 327 324 324 322 320 314 310 306 301 297 294 294 294 295 295 293 298 270 277 271 248 253 260 265 275 277 274 268 271 269 265 260 255 251 250 259 263 269 265 250 249 258 254 262 273 237 280 241 245 245 242 240 245 244 232 223 232 230 232 229 221 213 228 230 236 239 238 254 205 175 191 220 244 215 143 151 165 170 147 149
337 338 335 334 334 333 330 328 327 325 324 322 319 315 308 303 297 291 287 287 291 286 281 275 264 264 260 256 277 279 290 296 296 287 274 268 264 264 260 249 243 242 245 251 260 271 274 276 275 269 268 256 248 270 268 255 236 236 241 242 237 233 236 221 214 224 232 224 234 219 232 227 230 238 227 225 243 229 221 195 216 220 153 165 187 160 153 154
337 336 335 333 333 333 330 327 326 325 323 321 319 312 305 294 289 286 286 286 280 280 281 266 241 250 241 263 253 260 254 252 261 265 272 260 246 250 249 247 241 240 244 248 249 247 256 267 272 251 248 246 260 268 270 260 239 230 225 227 230 233 227 231 219 212 221 215 226 225 228 231 229 228 229 200 213 231 240 222 202 210 181 165 187 158 159 164
336 335 334 333 331 331 330 327 326 324 324 321 316 308 298 290 284 282 283 280 283 286 282 239 219 214 272 285 52 97 231 234 245 235 233 242 244 261 281 305 321 293 278 254 242 245 245 247 240 249 250 240 239 237 247 246 239 228 228 224 224 223 229 232 216 225 218 213 222 217 226 230 227 222 222 188 196 226 231 230 213 186 197 183 183 176 166 162
336 335 334 332 331 330 330 328 326 326 323 319 313 300 295 286 280 277 281 277 267 244 224 229 213 201 258 95 273 273 266 228 245 102 235 212 274 275 285 282 268 261 244 249 251 241 241 238 226 246 246 246 225 226 229 232 227 224 215 230 226 222 217 227 214 213 218 210 228 214 222 230 230 220 221 191 196 209 230 225 206 180 189 196 187 206 169 171
335 334 334 333 331 329 329 328 328 325 323 317 309 297 292 286 278 281 260 234 231 244 227 243 292 314 244 240 269 300 33 340 150 242 250 269 238 247 254 261 258 258 266 253 221 236 215 233 218 237 222 224 227 216 221 219 216 217 210 215 223 228 224 220 216 196 204 200 223 226 220 228 228 230 214 218 210 205 216 224 211 197 194 196 198 198 180 170
335 335 335 333 330 329 327 328 325 325 321 315 303 289 275 260 265 258 255 235 238 231 228 191 206 201 324 26 253 261 268 262 254 180 253 237 238 248 252 252 258 267 254 243 223 211 209 231 221 230 231 212 217 221 221 225 224 227 223 222 224 225 223 223 222 221 211 208 211 221 221 220 224 231 220 214 213 210 218 219 208 208 202 192 210 199 183 163
336 334 332 330 329 328 327 325 325 319 321 318 320 322 307 113 240 199 198 224 232 254 279 290 214 235 263 266 266 274 302 278 210 212 239 244 258 263 254 242 241 235 244 240 229 210 207 218 218 221 223 226 216 221 227 225 233 238 237 236 230 228 234 230 231 212 233 222 212 212 220 226 220 223 221 228 207 205 233 225 192 204 199 193 213 210 181 172
332 334 332 330 329 327 326 324 319 316 317 314 305 314 351 0 352 332 328 299 289 279 273 265 262 269 271 284 289 295 292 271 275 273 244 245 237 244 240 231 236 239 228 238 245 219 204 227 223 225 226 230 229 220 226 234 230 236 242 238 239 231 229 228 225 212 228 230 208 209 217 227 235 218 217 227 226 217 214 231 204 199 187 195 214 204 175 185
333 333 333 330 329 329 325 322 316 315 315 293 290 291 329 31 359 337 323 299 289 279 277 269 271 265 261 263 266 272 275 275 270 265 267 249 244 233 224 224 225 234 233 231 233 246 225 227 228 226 231 230 236 233 222 230 234 231 237 244 243 237 231 225 230 226 215 228 222 205 215 222 225 232 217 215 220 227 233 223 210 185 181 196 214 211 174 165
332 332 331 331 329 327 325 319 317 310 305 294 310 334 356 341 349 336 310 290 280 272 256 251 248 248 255 257 263 247 241 249 260 250 238 213 236 226 234 231 230 240 239 232 230 228 236 220 227 235 230 234 231 233 233 224 231 236 230 233 238 244 237 221 218 226 224 216 228 221 210 216 219 221 235 219 212 217 231 231 178 175 184 197 211 193 168 163
333 331 330 330 330 328 322 321 314 292 246 245 282 359 342 345 343 336 317 292 299 294 260 244 239 236 240 252 257 211 235 252 240 252 261 195 219 217 229 243 250 239 235 238 235 236 237 240 209 223 236 234 234 231 231 231 226 226 236 232 233 239 245 241 214 206 231 223 223 229 225 213 211 212 221 227 207 212 203 181 184 182 192 205 204 187 169 162
332 330 329 329 329 325 319 323 299 328 350 317 341 7 357 337 333 343 317 297 253 242 241 218 213 246 266 132 129 242 220 241 253 272 275 208 211 227 227 227 245 248 248 236 245 240 241 246 242 211 222 233 237 235 229 230 233 227 226 236 235 237 246 239 240 214 214 229 212 222 223 217 205 210 219 217 200 203 203 188 190 194 197 203 201 196 177 154
330 329 330 326 326 326 314 289 348 341 311 348 359 347 338 336 343 341 323 293 292 9 135 206 162 160 121 195 170 239 275 264 243 236 249 232 235 252 243 236 225 245 239 248 244 246 243 234 239 245 218 220 234 238 237 225 232 233 218 220 238 244 240 249 250 236 212 220 208 215 232 219 212 219 217 217 206 201 207 196 199 199 200 200 198 203 176 144
330 327 326 324 322 328 321 10 348 296 305 1 355 349 344 338 353 308 300 248 269 145 221 75 224 138 245 172 187 188 242 112 349 300 244 215 228 201 257 253 237 239 258 252 236 234 239 250 245 234 245 230 221 229 232 237 228 232 234 219 221 240 244 252 251 232 243 227 222 214 216 229 209 216 216 210 212 202 211 196 195 196 197 198 194 204 176 145
326 324 325 321 317 313 288 303 310 321 351 345 341 346 344 336 330 304 259 329 334 188 215 144 12 104 242 277 214 226 259 298 269 257 244 247 223 231 233 246 249 249 230 233 246 241 237 233 244 244 230 241 234 222 231 236 234 227 230 235 218 230 240 248 242 236 241 230 219 219 192 211 227 223 203 200 211 204 211 209 186 190 197 199 196 204 174 146
325 325 324 319 313 298 268 241 294 293 327 329 323 322 332 322 304 341 281 278 29 330 63 248 89 203 251 277 272 262 263 246 255 306 327 275 219 256 229 234 250 263 266 260 253 255 242 245 240 244 251 238 241 234 225 238 231 228 236 238 231 227 235 239 230 235 254 237 223 218 195 216 216 247 224 194 208 206 211 208 184 189 196 198 202 199 172 143
324 324 321 318 312 246 212 227 249 264 284 301 305 326 322 312 290 238 228 244 32 302 348 62 261 5 359 305 277 264 266 270 279 285 272 271 241 207 259 282 273 255 250 250 255 257 269 275 278 263 244 247 249 236 224 236 246 235 231 239 231 227 229 235 236 249 268 245 223 214 201 204 219 224 240 203 199 206 208 200 181 189 196 196 201 196 174 152
324 322 316 315 286 347 301 231 244 328 307 320 324 308 300 287 292 309 292 15 307 327 344 120 40 19 359 353 308 306 294 289 278 269 250 240 269 269 250 242 251 261 261 257 250 244 241 246 256 255 265 263 267 256 219 232 241 246 221 225 234 224 220 227 231 245 251 247 223 211 210 199 223 204 235 243 202 204 207 196 181 188 195 197 194 194 179 163
322 320 313 303 284 307 291 335 346 341 340 325 309 291 312 308 186 245 275 8 300 8 345 340 330 29 301 274 261 253 245 262 258 252 255 239 230 244 238 240 222 235 237 234 238 236 244 233 235 248 247 254 254 256 225 215 234 237 230 218 222 213 207 220 220 229 241 256 239 215 207 216 217 225 214 235 228 190 206 202 182 186 195 196 190 187 178 169
322 318 312 279 254 238 263 323 331 333 319 305 307 300 295 284 294 307 297 344 244 359 345 288 326 319 307 291 263 251 253 259 250 249 250 251 248 232 230 229 239 249 251 227 245 246 240 243 230 235 243 236 254 246 214 217 223 227 223 213 206 213 202 213 214 229 237 246 249 225 210 231 233 217 229 229 220 196 202 199 181 188 193 193 188 183 180 174
318 316 300 248 216 249 338 332 307 323 315 312 308 317 225 262 259 317 314 334 317 338 319 330 314 299 286 269 267 284 290 259 243 250 247 245 238 261 250 236 235 237 257 265 253 232 245 235 233 233 229 225 240 244 228 227 221 227 235 219 216 224 199 199 210 207 214 228 220 215 208 216 226 198 198 235 233 213 190 194 183 184 188 189 188 186 184 171
311 299 254 258 228 270 318 337 333 312 292 299 300 276 291 274 303 330 324 338 324 321 307 318 303 292 284 268 268 273 256 282 246 250 238 239 239 242 235 236 214 217 234 255 237 257 255 254 252 216 234 216 234 228 234 230 236 221 220 226 222 212 193 220 207 214 205 220 220 216 220 193 231 251 198 204 231 229 183 184 181 184 187 188 189 188 183 173
304 240 211 216 248 170 241 312 338 299 303 291 300 296 294 336 301 349 336 330 323 329 312 304 252 265 272 286 291 286 215 227 252 256 263 244 241 241 240 249 243 211 217 230 239 250 237 250 246 250 220 224 222 220 220 229 224 211 217 214 215 211 211 217 215 231 240 255 241 209 214 219 218 245 243 188 220 234 187 180 185 187 186 187 188 184 179 175
306 310 186 204 178 81 41 287 232 273 274 279 299 301 329 328 319 312 346 335 309 309 303 309 357 311 307 308 316 344 311 245 260 262 271 265 247 238 238 238 234 226 231 232 242 247 284 284 280 250 212 214 222 218 220 216 236 217 219 221 226 224 226 208 214 186 230 229 235 222 214 217 211 213 188 216 213 228 185 174 182 194 186 187 185 178 177 172
308 289 321 70 71 54 11 132 242 247 259 275 260 262 280 276 307 327 5 309 309 9 290 297 309 152 292 307 314 315 319 266 299 193 273 219 285 360 245 229 223 226 214 220 249 217 208 275 274 271 221 203 213 214 217 224 222 242 223 209 221 191 208 211 238 200 199 219 216 218 228 228 221 212 173 208 207 216 184 172 182 194 189 186 179 176 175 165
280 277 255 130 126 108 146 144 255 236 268 272 293 298 335 321 316 329 4 257 241 311 268 278 273 249 284 293 297 303 297 286 291 265 276 65 269 343 272 214 217 214 226 187 206 210 113 290 300 267 221 189 200 200 210 205 217 232 252 242 226 228 212 207 223 252 208 203 212 211 218 232 220 222 193 207 218 227 175 165 186 198 185 179 174 177 170 149
269 270 129 188 129 165 121 222 241 234 235 275 306 302 314 313 330 331 326 303 286 148 283 294 237 284 284 279 296 291 292 298 302 305 287 200 237 187 258 186 354 239 186 179 210 161 198 196 272 277 210 190 199 191 208 206 203 205 231 253 241 226 215 229 213 233 218 209 207 218 212 225 218 216 207 200 197 228 176 166 184 196 181 172 171 171 174 152
304 278 231 183 148 123 162 134 248 232 242 265 271 296 323 321 329 326 312 274 174 176 201 250 276 280 298 317 302 306 312 306 296 287 263 246 240 320 180 241 147 192 174 192 213 204 252 227 255 282 223 196 200 188 206 204 203 213 219 239 253 222 201 210 218 220 223 223 211 220 226 208 214 213 215 188 181 220 179 172 185 191 174 164 167 170 168 159
295 305 121 161 118 167 213 296 247 220 255 283 328 335 322 337 310 320 319 133 156 151 198 274 272 265 280 280 286 301 311 308 285 324 286 298 110 265 135 93 131 129 192 218 236 200 242 270 272 272 236 194 202 187 205 210 212 217 212 228 241 232 218 215 220 217 250 241 236 225 235 212 187 203 181 178 198 221 170 174 182 191 178 172 175 174 176 159
274 343 84 136 176 192 293 297 297 324 301 332 322 321 327 307 322 326 331 340 117 142 168 265 249 281 285 294 312 313 314 294 286 280 284 316 139 245 91 177 129 147 177 281 263 280 208 156 263 264 246 197 203 191 192 214 212 225 229 234 235 219 206 216 210 215 235 233 236 225 234 221 189 254 167 168 198 207 166 185 187 191 189 167 165 171 160 159
310 298 188 167 194 230 281 319 333 330 328 322 326 329 322 296 327 341 338 334 38 196 187 242 322 224 264 293 292 290 314 308 297 301 300 334 288 113 156 162 158 165 177 355 14 312 306 204 313 259 183 177 208 196 192 197 218 230 235 236 232 234 221 219 228 217 227 226 228 222 213 179 181 191 167 177 184 193 185 190 201 193 181 168 164 164 147 146
293 272 173 161 182 217 262 311 304 319 324 329 333 322 310 329 355 355 331 337 346 147 149 213 217 260 260 288 292 283 272 255 283 312 314 276 81 168 143 183 168 229 155 193 196 172 66 279 322 288 175 180 197 190 188 187 207 223 241 248 244 234 221 199 224 230 267 312 266 231 215 152 150 229 158 173 171 197 187 184 201 192 161 160 151 133 133 142
322 323 2 159 190 229 245 255 259 309 322 321 315 309 327 331 344 335 348 328 345 107 216 80 259 284 258 291 300 294 300 239 230 304 296 313 339 159 160 188 176 223 204 181 215 92 265 254 224 223 280 229 198 192 181 191 185 224 225 237 246 243 231 215 204 224 260 273 284 251 34 140 165 212 163 153 168 194 192 184 194 160 145 130 133 131 141 143
280 324 0 327 327 318 346 326 346 334 288 296 293 332 331 336 337 325 358 321 334 337 180 155 208 26 310 334 311 311 296 281 255 258 296 308 335 33 147 202 184 224 95 303 190 280 225 314 301 277 286 284 286 229 170 187 200 216 227 233 251 251 240 231 200 210 225 263 249 41 104 142 204 186 189 122 162 137 354 203 192 161 136 135 147 144 145 150
327 358 346 37 297 301 327 342 324 303 286 287 322 346 330 334 333 333 334 329 321 331 329 160 215 260 273 267 295 298 315 306 347 314 307 305 313 144 167 183 239 184 228 268 168 204 293 291 287 291 284 255 280 285 214 191 209 213 231 239 236 253 269 257 211 224 226 241 256 117 250 205 205 175 137 182 165 125 251 130 93 66 136 154 164 166 160 157
7 326 333 21 333 310 307 297 298 287 279 337 7 338 334 333 331 337 334 324 331 330 350 336 325 245 240 246 257 285 300 312 326 300 309 318 316 331 217 158 220 194 174 242 247 276 275 283 322 325 307 296 284 254 236 207 204 221 221 228 230 241 249 236 216 209 230 234 277 53 348 85 322 86 94 27 27 95 58 23 122 118 52 79 117 98 68 159
15 351 328 333 305 295 307 310 299 302 324 356 345 350 333 332 330 332 332 332 323 330 341 331 326 30 304 274 242 267 298 301 309 306 310 296 299 294 311 329 322 198 205 204 224 86 9 318 316 321 320 286 259 248 206 197 206 220 223 219 219 228 238 231 230 230 222 264 285 289 99 345 294 279 64 83 358 72 93 140 115 119 139 114 72 115 140 185
335 346 339 314 316 307 307 303 321 323 332 352 347 343 330 331 329 328 323 322 317 328 332 330 349 59 298 321 276 288 292 293 289 281 291 295 282 317 314 188 256 307 211 237 223 149 201 286 290 91 286 285 283 252 262 228 215 214 220 222 223 220 223 217 229 218 238 218 222 235 281 163 246 169 75 51 163 139 108 136 149 182 149 139 139 194 185 165
344 336 310 302 293 303 301 322 313 338 346 349 341 338 331 323 321 329 321 329 328 315 330 331 353 135 274 295 244 241 254 272 276 273 269 280 297 292 288 289 314 302 306 256 243 265 107 35 342 339 333 316 316 321 324 275 243 227 220 213 219 234 228 228 237 251 259 275 240 213 188 66 93 297 158 193 239 18 136 178 111 157 181 183 170 172 188 180